TimeCDT,TemperatureF,Dew PointF,Humidity,Sea Level PressureIn,VisibilityMPH,Wind Direction,Wind SpeedMPH,Gust SpeedMPH,PrecipitationIn,Events,Conditions,WindDirDegrees,DateUTC
12:12 AM,60.8,51.8,72,30.01,10.0,SSE,5.8,-,N/A,,Clear,160,2013-10-10 05:12:00
12:18 AM,60.8,51.8,72,30.01,10.0,South,5.8,-,N/A,,Clear,170,2013-10-10 05:18:00
12:53 AM,60.8,51.8,72,30.01,10.0,SSE,8.1,-,N/A,,Clear,160,2013-10-10 05:53:00
1:13 AM,60.8,50.0,68,30.00,10.0,SSE,5.8,-,N/A,,Clear,150,2013-10-10 06:13:00
1:32 AM,59.0,50.0,72,30.00,10.0,SSE,6.9,-,N/A,,Clear,160,2013-10-10 06:32:00
1:53 AM,60.8,50.0,68,30.00,10.0,SSE,6.9,-,N/A,,Clear,160,2013-10-10 06:53:00
2:13 AM,60.8,50.0,68,30.00,10.0,SSE,5.8,-,N/A,,Clear,160,2013-10-10 07:13:00
2:32 AM,59.0,50.0,72,30.00,10.0,South,6.9,-,N/A,,Clear,170,2013-10-10 07:32:00
2:53 AM,59.0,50.0,72,30.00,10.0,South,8.1,-,N/A,,Clear,170,2013-10-10 07:53:00
3:13 AM,59.0,50.0,72,29.99,10.0,SSE,6.9,-,N/A,,Clear,160,2013-10-10 08:13:00
3:33 AM,57.2,50.0,77,29.99,10.0,SSE,6.9,-,N/A,,Clear,160,2013-10-10 08:33:00
3:53 AM,57.2,50.0,77,29.99,10.0,SSE,6.9,-,N/A,,Clear,160,2013-10-10 08:53:00
4:13 AM,57.2,48.2,72,29.99,10.0,SSE,6.9,-,N/A,,Clear,160,2013-10-10 09:13:00
4:33 AM,57.2,48.2,72,29.99,10.0,SSE,8.1,-,N/A,,Clear,150,2013-10-10 09:33:00
4:53 AM,57.2,48.2,72,29.98,10.0,SSE,5.8,-,N/A,,Clear,160,2013-10-10 09:53:00
5:13 AM,55.4,48.2,77,29.98,10.0,SSE,5.8,-,N/A,,Clear,150,2013-10-10 10:13:00
5:33 AM,55.4,48.2,77,29.98,10.0,SSE,5.8,-,N/A,,Clear,150,2013-10-10 10:33:00
5:53 AM,55.4,46.4,72,29.98,10.0,SSE,4.6,-,N/A,,Clear,150,2013-10-10 10:53:00
6:12 AM,55.4,46.4,72,29.98,10.0,SSE,4.6,-,N/A,,Clear,150,2013-10-10 11:12:00
6:33 AM,53.6,46.4,77,29.98,10.0,SSE,3.5,-,N/A,,Clear,150,2013-10-10 11:33:00
6:53 AM,53.6,46.4,77,29.98,10.0,SSE,5.8,-,N/A,,Clear,150,2013-10-10 11:53:00
7:12 AM,53.6,46.4,77,29.97,10.0,SSE,6.9,-,N/A,,Clear,150,2013-10-10 12:12:00
7:33 AM,53.6,46.4,77,29.97,10.0,SSE,6.9,-,N/A,,Clear,150,2013-10-10 12:33:00
7:53 AM,55.4,46.4,72,29.96,10.0,SSE,8.1,-,N/A,,Clear,150,2013-10-10 12:53:00
8:12 AM,55.4,46.4,72,29.96,10.0,SSE,8.1,-,N/A,,Clear,150,2013-10-10 13:12:00
8:33 AM,55.4,46.4,72,29.95,10.0,SE,9.2,-,N/A,,Clear,140,2013-10-10 13:33:00
8:52 AM,57.2,46.4,67,29.95,10.0,SSE,9.2,-,N/A,,Clear,160,2013-10-10 13:52:00
9:13 AM,57.2,46.4,67,29.96,10.0,SSE,9.2,-,N/A,,Clear,160,2013-10-10 14:13:00
9:32 AM,59.0,48.2,67,29.96,10.0,SSE,9.2,-,N/A,,Clear,150,2013-10-10 14:32:00
9:53 AM,59.0,48.2,67,29.95,10.0,SSE,9.2,-,N/A,,Clear,160,2013-10-10 14:53:00
10:13 AM,60.8,48.2,63,29.95,10.0,SSE,8.1,-,N/A,,Clear,150,2013-10-10 15:13:00
10:32 AM,62.6,48.2,59,29.95,10.0,SSE,9.2,-,N/A,,Clear,150,2013-10-10 15:32:00
10:53 AM,64.4,48.2,56,29.95,10.0,SSE,11.5,-,N/A,,Clear,160,2013-10-10 15:53:00
11:13 AM,64.4,48.2,56,29.94,10.0,SSE,12.7,17.3,N/A,,Clear,160,2013-10-10 16:13:00
11:32 AM,66.2,50.0,56,29.95,10.0,SSE,12.7,16.1,N/A,,Clear,150,2013-10-10 16:32:00
11:53 AM,66.2,51.8,60,29.94,10.0,SSE,13.8,-,N/A,,Clear,150,2013-10-10 16:53:00
12:13 PM,68.0,51.8,56,29.93,10.0,SSE,11.5,16.1,N/A,,Clear,160,2013-10-10 17:13:00
12:32 PM,69.8,53.6,56,29.93,10.0,SSE,11.5,17.3,N/A,,Clear,150,2013-10-10 17:32:00
12:53 PM,71.6,53.6,53,29.92,10.0,SSE,11.5,17.3,N/A,,Clear,150,2013-10-10 17:53:00
1:13 PM,69.8,53.6,56,29.92,10.0,SSE,8.1,18.4,N/A,,Clear,160,2013-10-10 18:13:00
1:32 PM,71.6,53.6,53,29.92,10.0,SSE,10.4,-,N/A,,Clear,160,2013-10-10 18:32:00
1:53 PM,71.6,53.6,53,29.90,10.0,SSE,13.8,18.4,N/A,,Clear,160,2013-10-10 18:53:00
2:12 PM,73.4,53.6,50,29.89,10.0,SSE,11.5,-,N/A,,Clear,160,2013-10-10 19:12:00
2:33 PM,73.4,55.4,53,29.89,10.0,SSE,10.4,18.4,N/A,,Clear,150,2013-10-10 19:33:00
2:52 PM,73.4,55.4,53,29.88,10.0,SSE,12.7,18.4,N/A,,Clear,150,2013-10-10 19:52:00
3:13 PM,75.2,53.6,47,29.88,10.0,SSE,16.1,20.7,N/A,,Clear,150,2013-10-10 20:13:00
3:33 PM,73.4,55.4,53,29.88,10.0,SSE,10.4,-,N/A,,Clear,160,2013-10-10 20:33:00
3:52 PM,73.4,55.4,53,29.87,10.0,SSE,12.7,19.6,N/A,,Clear,160,2013-10-10 20:52:00
4:13 PM,75.2,55.4,50,29.87,10.0,SE,11.5,-,N/A,,Clear,140,2013-10-10 21:13:00
4:33 PM,75.2,53.6,47,29.86,10.0,SSE,12.7,18.4,N/A,,Clear,150,2013-10-10 21:33:00
4:52 PM,71.6,53.6,53,29.87,10.0,SSE,8.1,-,N/A,,Clear,150,2013-10-10 21:52:00
5:13 PM,71.6,53.6,53,29.87,10.0,SSE,10.4,16.1,N/A,,Clear,150,2013-10-10 22:13:00
5:33 PM,71.6,53.6,53,29.86,10.0,SSE,6.9,-,N/A,,Clear,150,2013-10-10 22:33:00
5:52 PM,71.6,53.6,53,29.86,10.0,SSE,6.9,-,N/A,,Clear,150,2013-10-10 22:52:00
6:13 PM,69.8,53.6,56,29.86,10.0,SE,5.8,-,N/A,,Clear,140,2013-10-10 23:13:00
6:33 PM,69.8,53.6,56,29.86,10.0,SE,6.9,-,N/A,,Clear,130,2013-10-10 23:33:00
6:52 PM,69.8,53.6,56,29.86,10.0,SE,5.8,-,N/A,,Clear,130,2013-10-10 23:52:00
7:13 PM,69.8,51.8,53,29.87,10.0,SE,8.1,-,N/A,,Clear,130,2013-10-11 00:13:00
7:32 PM,66.2,51.8,60,29.87,10.0,SE,5.8,-,N/A,,Clear,130,2013-10-11 00:32:00
7:53 PM,66.2,51.8,60,29.87,10.0,SE,9.2,-,N/A,,Clear,130,2013-10-11 00:53:00
8:13 PM,66.2,51.8,60,29.88,10.0,SE,9.2,-,N/A,,Clear,130,2013-10-11 01:13:00
8:32 PM,66.2,51.8,60,29.87,10.0,SE,10.4,-,N/A,,Clear,130,2013-10-11 01:32:00
8:53 PM,66.2,51.8,60,29.87,10.0,SE,8.1,-,N/A,,Clear,130,2013-10-11 01:53:00
9:13 PM,66.2,50.0,56,29.88,10.0,SE,8.1,-,N/A,,Clear,130,2013-10-11 02:13:00
9:32 PM,66.2,50.0,56,29.88,10.0,SE,8.1,-,N/A,,Clear,140,2013-10-11 02:32:00
9:53 PM,64.4,50.0,59,29.88,10.0,SE,8.1,-,N/A,,Clear,130,2013-10-11 02:53:00
10:13 PM,64.4,50.0,59,29.88,10.0,ESE,8.1,-,N/A,,Clear,120,2013-10-11 03:13:00
10:32 PM,64.4,50.0,59,29.88,10.0,ESE,6.9,-,N/A,,Clear,120,2013-10-11 03:32:00
10:53 PM,64.4,50.0,59,29.88,10.0,SE,8.1,-,N/A,,Clear,130,2013-10-11 03:53:00
11:13 PM,62.6,50.0,63,29.87,10.0,SE,8.1,-,N/A,,Clear,140,2013-10-11 04:13:00
11:32 PM,64.4,50.0,59,29.87,10.0,SE,9.2,17.3,N/A,,Clear,130,2013-10-11 04:32:00
11:53 PM,62.6,50.0,63,29.87,10.0,SE,10.4,17.3,N/A,,Clear,130,2013-10-11 04:53:00